Location: Beuerbach
(48.1459°N, 10.9174°E)
Time: 08:35:31
(UTC+00:00)

Cosmos 1954 Rocket - Pass Details

Date: 23 May 2024
Orbit: 750 x 779 km, 74.0° (Epoch: 15 June)

Event Time Altitude Azimuth Distance (km) Brightness Sun altitude
Exits shadow 00:48:43 30° 228° (SW) 1,385 4.8 -18.0°
Maximum altitude 00:51:18 60° 296° (WNW) 894 4.3 -17.8°
Drops below altitude 10° 00:56:34 10° 17° (NNE) 2,340 7.8 -17.4°
Sets 00:59:00 0° 21° (NNE) 3,269 9.0 -17.2°
